21-08-2022, 00:00:04,    222,    0.0,   14.4,   0.00,   0.00, 1013.1,   70.5, -999.0
21-08-2022, 00:00:13,    221,    0.0,   14.4,   0.00,   0.00, 1013.0,   70.5, -999.0
21-08-2022, 00:00:23,    222,    0.0,   14.4,   0.00,   0.00, 1013.0,   70.4, -999.0
21-08-2022, 00:00:33,    222,    0.0,   14.4,   0.00,   0.00, 1013.0,   70.4, -999.0
21-08-2022, 00:00:43,    222,    0.0,   14.4,   0.00,   0.00, 1013.0,   70.5, -999.0
21-08-2022, 00:00:53,    222,    0.0,   14.4,   0.00,   0.00, 1013.0,   70.5, -999.0
21-08-2022, 00:01:03,    221,    0.0,   14.4,   0.00,   0.00, 1013.0,   70.4, -999.0
21-08-2022, 00:01:13,    221,    0.0,   14.4,   0.00,   0.00, 1013.0,   70.5, -999.0
21-08-2022, 00:01:23,    221,    0.0,   14.4,   0.00,   0.00, 1013.0,   70.5, -999.0
21-08-2022, 00:01:33,    222,    0.0,   14.3,   0.00,   0.00, 1013.0,   70.5, -999.0
21-08-2022, 00:01:43,    222,    0.0,   14.4,   0.00,   0.00, 1013.0,   70.4, -999.0
21-08-2022, 00:01:53,    222,    0.0,   14.3,   0.00,   0.00, 1013.0,   70.5, -999.0
21-08-2022, 00:02:03,    222,    0.0,   14.4,   0.00,   0.00, 1013.0,   70.6, -999.0
21-08-2022, 00:02:13,    221,    0.0,   14.3,   0.00,   0.00, 1013.0,   70.5, -999.0
21-08-2022, 00:02:23,    222,    0.0,   14.3,   0.00,   0.00, 1013.0,   70.6, -999.0
21-08-2022, 00:02:33,    222,    0.0,   14.3,   0.00,   0.00, 1013.0,   70.6, -999.0
21-08-2022, 00:02:43,    221,    0.0,   14.3,   0.00,   0.00, 1013.0,   70.6, -999.0
21-08-2022, 00:02:52,    222,    0.0,   14.4,   0.00,   0.00, 1013.0,   70.6, -999.0
21-08-2022, 00:03:02,    222,    0.0,   14.3,   0.00,   0.00, 1013.0,   70.7, -999.0
21-08-2022, 00:03:13,    222,    0.0,   14.2,   0.00,   0.00, 1013.0,   70.8, -999.0
21-08-2022, 00:03:22,    222,    0.0,   14.3,   0.00,   0.00, 1013.0,   71.0, -999.0
21-08-2022, 00:03:32,    222,    0.0,   14.3,   0.00,   0.00, 1013.0,   70.8, -999.0
21-08-2022, 00:03:42,    221,    0.0,   14.3,   0.00,   0.00, 1013.0,   70.9, -999.0
21-08-2022, 00:03:52,    222,    0.0,   14.3,   0.00,   0.00, 1013.0,   70.8, -999.0
21-08-2022, 00:04:02,    222,    0.0,   14.3,   0.00,   0.00, 1013.0,   70.7, -999.0
21-08-2022, 00:04:12,    221,    0.0,   14.3,   0.00,   0.00, 1013.0,   70.8, -999.0
21-08-2022, 00:04:22,    221,    0.0,   14.3,   0.00,   0.00, 1013.0,   71.0, -999.0
21-08-2022, 00:04:32,    222,    0.0,   14.3,   0.00,   0.00, 1013.0,   71.0, -999.0
21-08-2022, 00:04:42,    221,    0.0,   14.3,   0.00,   0.00, 1013.0,   71.1, -999.0
21-08-2022, 00:04:52,    222,    0.0,   14.2,   0.00,   0.00, 1013.0,   71.0, -999.0
21-08-2022, 00:05:02,    222,    0.0,   14.3,   0.00,   0.00, 1013.0,   71.0, -999.0
21-08-2022, 00:05:12,    222,    0.0,   14.2,   0.00,   0.00, 1013.0,   71.0, -999.0
21-08-2022, 00:05:22,    222,    0.0,   14.3,   0.00,   0.00, 1013.0,   71.0, -999.0
21-08-2022, 00:05:31,    222,    0.0,   14.2,   0.00,   0.00, 1013.0,   71.2, -999.0
21-08-2022, 00:05:42,    222,    0.0,   14.2,   0.00,   0.00, 1013.0,   71.2, -999.0
21-08-2022, 00:05:52,    222,    0.0,   14.2,   0.00,   0.00, 1013.0,   71.3, -999.0
21-08-2022, 00:06:01,    222,    0.0,   14.3,   0.00,   0.00, 1012.9,   71.4, -999.0
21-08-2022, 00:06:12,    222,    0.0,   14.3,   0.00,   0.00, 1013.0,   71.4, -999.0
21-08-2022, 00:06:22,    221,    0.0,   14.3,   0.00,   0.00, 1013.0,   71.3, -999.0
21-08-2022, 00:06:31,    222,    0.0,   14.3,   0.00,   0.00, 1012.9,   71.4, -999.0
21-08-2022, 00:06:41,    221,    0.0,   14.3,   0.00,   0.00, 1013.0,   71.3, -999.0
21-08-2022, 00:06:51,    222,    0.0,   14.3,   0.00,   0.00, 1012.9,   71.4, -999.0
21-08-2022, 00:07:01,    221,    0.0,   14.3,   0.00,   0.00, 1013.0,   71.3, -999.0
21-08-2022, 00:07:11,    221,    0.0,   14.2,   0.00,   0.00, 1013.0,   71.3, -999.0
21-08-2022, 00:07:21,    221,    0.0,   14.3,   0.00,   0.00, 1013.0,   71.4, -999.0
21-08-2022, 00:07:31,    221,    0.0,   14.3,   0.00,   0.00, 1012.9,   71.5, -999.0
21-08-2022, 00:07:41,    222,    0.0,   14.2,   0.00,   0.00, 1012.9,   71.5, -999.0
21-08-2022, 00:07:51,    222,    0.0,   14.3,   0.00,   0.00, 1012.9,   71.6, -999.0
21-08-2022, 00:08:01,    222,    0.0,   14.3,   0.00,   0.00, 1012.9,   71.5, -999.0
21-08-2022, 00:08:11,    222,    0.0,   14.3,   0.00,   0.00, 1012.9,   71.6, -999.0
21-08-2022, 00:08:21,    222,    0.0,   14.3,   0.00,   0.00, 1012.9,   71.6, -999.0
21-08-2022, 00:08:31,    222,    0.0,   14.3,   0.00,   0.00, 1012.9,   71.6, -999.0
21-08-2022, 00:08:40,    222,    0.0,   14.3,   0.00,   0.00, 1012.9,   71.5, -999.0
21-08-2022, 00:08:51,    222,    0.0,   14.4,   0.00,   0.00, 1012.9,   71.5, -999.0
21-08-2022, 00:09:01,    222,    0.0,   14.3,   0.00,   0.00, 1012.9,   71.5, -999.0
21-08-2022, 00:09:10,    222,    0.0,   14.3,   0.00,   0.00, 1012.9,   71.4, -999.0
21-08-2022, 00:09:21,    222,    0.0,   14.3,   0.00,   0.00, 1012.9,   71.5, -999.0
21-08-2022, 00:09:30,    222,    0.0,   14.3,   0.00,   0.00, 1012.9,   71.5, -999.0
21-08-2022, 00:09:40,    222,    0.0,   14.3,   0.00,   0.00, 1012.9,   71.5, -999.0
21-08-2022, 00:09:50,    222,    0.0,   14.2,   0.00,   0.00, 1012.9,   71.5, -999.0
21-08-2022, 00:10:00,    222,    0.0,   14.3,   0.00,   0.00, 1013.0,   71.7, -999.0
21-08-2022, 00:10:10,    222,    0.0,   14.3,   0.00,   0.00, 1012.9,   71.8, -999.0
21-08-2022, 00:10:20,    222,    0.0,   14.3,   0.00,   0.00, 1013.0,   71.8, -999.0
21-08-2022, 00:10:30,    222,    0.0,   14.3,   0.00,   0.00, 1012.9,   71.9, -999.0
21-08-2022, 00:10:40,    218,    0.0,   14.3,   0.00,   0.00, 1013.0,   71.8, -999.0
21-08-2022, 00:10:50,    222,    0.0,   14.3,   0.00,   0.00, 1012.9,   71.7, -999.0
21-08-2022, 00:11:00,    222,    0.0,   14.3,   0.00,   0.00, 1012.9,   71.7, -999.0
21-08-2022, 00:11:10,    223,    0.0,   14.2,   0.00,   0.00, 1012.9,   71.7, -999.0
21-08-2022, 00:11:20,    222,    0.0,   14.3,   0.00,   0.00, 1012.9,   71.7, -999.0
21-08-2022, 00:11:30,    222,    0.0,   14.3,   0.00,   0.00, 1012.9,   71.7, -999.0
21-08-2022, 00:11:40,    222,    0.0,   14.3,   0.00,   0.00, 1012.9,   71.9, -999.0
21-08-2022, 00:11:50,    222,    0.0,   14.3,   0.00,   0.00, 1012.9,   71.7, -999.0
21-08-2022, 00:12:00,    222,    0.0,   14.3,   0.00,   0.00, 1012.9,   71.9, -999.0
21-08-2022, 00:12:09,    222,    0.0,   14.2,   0.00,   0.00, 1012.9,   72.0, -999.0
21-08-2022, 00:12:19,    222,    0.0,   14.2,   0.00,   0.00, 1012.9,   72.0, -999.0
21-08-2022, 00:12:30,    222,    0.0,   14.3,   0.00,   0.00, 1012.9,   72.0, -999.0
21-08-2022, 00:12:39,    222,    0.0,   14.3,   0.00,   0.00, 1012.9,   72.1, -999.0
21-08-2022, 00:12:49,    221,    0.0,   14.2,   0.00,   0.00, 1012.9,   72.0, -999.0
21-08-2022, 00:12:59,    222,    0.0,   14.3,   0.00,   0.00, 1012.9,   72.0, -999.0
21-08-2022, 00:13:09,    222,    0.0,   14.3,   0.00,   0.00, 1012.9,   72.2, -999.0
21-08-2022, 00:13:19,    223,    0.0,   14.3,   0.00,   0.00, 1012.9,   72.1, -999.0
21-08-2022, 00:13:29,    222,    0.0,   14.3,   0.00,   0.00, 1012.9,   72.1, -999.0
21-08-2022, 00:13:39,    222,    0.0,   14.3,   0.00,   0.00, 1012.9,   72.1, -999.0
21-08-2022, 00:13:49,    222,    0.0,   14.3,   0.00,   0.00, 1012.9,   72.1, -999.0
21-08-2022, 00:13:59,    222,    0.0,   14.3,   0.00,   0.00, 1012.9,   72.3, -999.0
21-08-2022, 00:14:09,    222,    0.0,   14.3,   0.00,   0.00, 1012.9,   72.3, -999.0
21-08-2022, 00:14:19,    222,    0.0,   14.3,   0.00,   0.00, 1012.9,   72.2, -999.0
21-08-2022, 00:14:29,    222,    0.0,   14.3,   0.00,   0.00, 1012.9,   72.2, -999.0
21-08-2022, 00:14:39,    222,    0.0,   14.3,   0.00,   0.00, 1012.9,   72.3, -999.0
21-08-2022, 00:14:48,    222,    0.0,   14.3,   0.00,   0.00, 1012.9,   72.2, -999.0
21-08-2022, 00:14:59,    222,    0.0,   14.3,   0.00,   0.00, 1012.9,   72.1, -999.0
21-08-2022, 00:15:09,    222,    0.0,   14.2,   0.00,   0.00, 1012.9,   72.3, -999.0
21-08-2022, 00:15:18,    222,    0.0,   14.3,   0.00,   0.00, 1012.9,   72.4, -999.0
21-08-2022, 00:15:28,    222,    0.0,   14.3,   0.00,   0.00, 1012.8,   72.5, -999.0
21-08-2022, 00:15:39,    222,    0.0,   14.3,   0.00,   0.00, 1012.8,   72.5, -999.0
21-08-2022, 00:15:48,    222,    0.0,   14.3,   0.00,   0.00, 1012.8,   72.5, -999.0
21-08-2022, 00:15:58,    222,    0.0,   14.3,   0.00,   0.00, 1012.8,   72.5, -999.0
21-08-2022, 00:16:08,    222,    0.0,   14.3,   0.00,   0.00, 1012.8,   72.5, -999.0
21-08-2022, 00:16:18,    222,    0.0,   14.3,   0.00,   0.00, 1012.9,   72.6, -999.0
21-08-2022, 00:16:28,    222,    0.0,   14.3,   0.00,   0.00, 1012.8,   72.4, -999.0
21-08-2022, 00:16:38,    222,    0.0,   14.3,   0.00,   0.00, 1012.9,   72.5, -999.0
21-08-2022, 00:16:48,    221,    0.0,   14.3,   0.00,   0.00, 1012.8,   72.7, -999.0
21-08-2022, 00:16:58,    222,    0.0,   14.3,   0.00,   0.00, 1012.8,   72.6, -999.0
21-08-2022, 00:17:08,    222,    0.0,   14.3,   0.00,   0.00, 1012.9,   72.5, -999.0
21-08-2022, 00:17:18,    222,    0.0,   14.3,   0.00,   0.00, 1012.8,   72.5, -999.0
21-08-2022, 00:17:28,    223,    0.0,   14.3,   0.00,   0.00, 1012.8,   72.5, -999.0
21-08-2022, 00:17:38,    222,    0.0,   14.3,   0.00,   0.00, 1012.8,   72.4, -999.0
21-08-2022, 00:17:48,    222,    0.0,   14.3,   0.00,   0.00, 1012.8,   72.4, -999.0
21-08-2022, 00:17:57,    222,    0.0,   14.3,   0.00,   0.00, 1012.8,   72.5, -999.0
21-08-2022, 00:18:08,    222,    0.0,   14.3,   0.00,   0.00, 1012.8,   72.4, -999.0
21-08-2022, 00:18:18,    224,    0.0,   14.3,   0.00,   0.00, 1012.8,   72.5, -999.0
21-08-2022, 00:18:27,    222,    0.0,   14.3,   0.00,   0.00, 1012.8,   72.6, -999.0
21-08-2022, 00:18:38,    222,    0.0,   14.3,   0.00,   0.00, 1012.8,   72.5, -999.0
21-08-2022, 00:18:47,    222,    0.0,   14.3,   0.00,   0.00, 1012.8,   72.6, -999.0
21-08-2022, 00:18:57,    222,    0.0,   14.2,   0.00,   0.00, 1012.8,   72.7, -999.0
21-08-2022, 00:19:07,    222,    0.0,   14.3,   0.00,   0.00, 1012.8,   72.7, -999.0
21-08-2022, 00:19:17,    222,    0.0,   14.3,   0.00,   0.00, 1012.7,   72.7, -999.0
21-08-2022, 00:19:27,    222,    0.0,   14.3,   0.00,   0.00, 1012.8,   72.7, -999.0
21-08-2022, 00:19:37,    222,    0.0,   14.2,   0.00,   0.00, 1012.8,   72.6, -999.0
21-08-2022, 00:19:47,    222,    0.0,   14.3,   0.00,   0.00, 1012.8,   72.6, -999.0
21-08-2022, 00:19:57,    222,    0.0,   14.2,   0.00,   0.00, 1012.8,   72.7, -999.0
21-08-2022, 00:20:07,    222,    0.0,   14.2,   0.00,   0.00, 1012.8,   72.7, -999.0
21-08-2022, 00:20:17,    222,    0.0,   14.3,   0.00,   0.00, 1012.8,   72.8, -999.0
21-08-2022, 00:20:27,    222,    0.0,   14.3,   0.00,   0.00, 1012.8,   72.8, -999.0
21-08-2022, 00:20:37,    222,    0.0,   14.3,   0.00,   0.00, 1012.8,   72.6, -999.0
21-08-2022, 00:20:47,    222,    0.0,   14.3,   0.00,   0.00, 1012.8,   72.7, -999.0
21-08-2022, 00:20:57,    222,    0.0,   14.2,   0.00,   0.00, 1012.8,   72.7, -999.0
21-08-2022, 00:21:06,    222,    0.0,   14.2,   0.00,   0.00, 1012.8,   72.7, -999.0
21-08-2022, 00:21:17,    222,    0.0,   14.3,   0.00,   0.00, 1012.8,   72.6, -999.0
21-08-2022, 00:21:26,    222,    0.0,   14.3,   0.00,   0.00, 1012.8,   72.7, -999.0
21-08-2022, 00:21:36,    222,    0.0,   14.3,   0.00,   0.00, 1012.7,   72.7, -999.0
21-08-2022, 00:21:47,    222,    0.0,   14.3,   0.00,   0.00, 1012.7,   72.7, -999.0
21-08-2022, 00:21:56,    222,    0.0,   14.3,   0.00,   0.00, 1012.8,   72.6, -999.0
21-08-2022, 00:22:06,    222,    0.0,   14.3,   0.00,   0.00, 1012.7,   72.7, -999.0
21-08-2022, 00:22:16,    222,    0.0,   14.2,   0.00,   0.00, 1012.7,   72.6, -999.0
21-08-2022, 00:22:26,    221,    0.0,   14.3,   0.00,   0.00, 1012.7,   72.6, -999.0
21-08-2022, 00:22:36,    221,    0.0,   14.3,   0.00,   0.00, 1012.7,   72.7, -999.0
21-08-2022, 00:22:46,    222,    0.0,   14.3,   0.00,   0.00, 1012.7,   72.7, -999.0
21-08-2022, 00:22:56,    222,    0.0,   14.2,   0.00,   0.00, 1012.7,   72.7, -999.0
21-08-2022, 00:23:06,    222,    0.0,   14.2,   0.00,   0.00, 1012.7,   72.7, -999.0
21-08-2022, 00:23:16,    222,    0.0,   14.2,   0.00,   0.00, 1012.7,   72.6, -999.0
21-08-2022, 00:23:26,    222,    0.0,   14.2,   0.00,   0.00, 1012.7,   72.7, -999.0
21-08-2022, 00:23:36,    222,    0.0,   14.2,   0.00,   0.00, 1012.7,   72.7, -999.0
21-08-2022, 00:23:46,    222,    0.0,   14.2,   0.00,   0.00, 1012.7,   72.7, -999.0
21-08-2022, 00:23:56,    222,    0.0,   14.2,   0.00,   0.00, 1012.7,   72.7, -999.0
21-08-2022, 00:24:06,    222,    0.0,   14.2,   0.00,   0.00, 1012.7,   72.8, -999.0
21-08-2022, 00:24:15,    222,    0.0,   14.2,   0.00,   0.00, 1012.7,   72.8, -999.0
21-08-2022, 00:24:25,    222,    0.0,   14.1,   0.00,   0.00, 1012.7,   72.9, -999.0
21-08-2022, 00:24:36,    222,    0.0,   14.1,   0.00,   0.00, 1012.7,   72.9, -999.0
21-08-2022, 00:24:45,    222,    0.0,   14.1,   0.00,   0.00, 1012.7,   73.0, -999.0
21-08-2022, 00:24:55,    222,    0.0,   14.1,   0.00,   0.00, 1012.7,   72.9, -999.0
21-08-2022, 00:25:07,    222,    0.0,   14.2,   0.00,   0.00, 1012.6,   72.9, -999.0
21-08-2022, 00:25:15,    222,    0.0,   14.2,   0.00,   0.00, 1012.7,   72.8, -999.0
21-08-2022, 00:25:25,    222,    0.0,   14.2,   0.00,   0.00, 1012.6,   72.9, -999.0
21-08-2022, 00:25:35,    222,    0.0,   14.2,   0.00,   0.00, 1012.6,   72.9, -999.0
21-08-2022, 00:25:45,    222,    0.0,   14.2,   0.00,   0.00, 1012.6,   72.9, -999.0
21-08-2022, 00:25:55,    222,    0.0,   14.1,   0.00,   0.00, 1012.6,   73.0, -999.0
21-08-2022, 00:26:05,    222,    0.0,   14.1,   0.00,   0.00, 1012.6,   72.9, -999.0
21-08-2022, 00:26:15,    222,    0.0,   14.1,   0.00,   0.00, 1012.6,   73.0, -999.0
21-08-2022, 00:26:25,    222,    0.0,   14.1,   0.00,   0.00, 1012.6,   72.9, -999.0
21-08-2022, 00:26:35,    222,    0.0,   14.1,   0.00,   0.00, 1012.6,   73.0, -999.0
21-08-2022, 00:26:45,    222,    0.0,   14.1,   0.00,   0.00, 1012.6,   73.0, -999.0
21-08-2022, 00:26:55,    222,    0.0,   14.1,   0.00,   0.00, 1012.6,   73.0, -999.0
21-08-2022, 00:27:05,    221,    0.0,   14.1,   0.00,   0.00, 1012.6,   73.0, -999.0
21-08-2022, 00:27:15,    222,    0.0,   14.1,   0.00,   0.00, 1012.6,   73.0, -999.0
21-08-2022, 00:27:24,    222,    0.0,   14.1,   0.00,   0.00, 1012.6,   73.1, -999.0
21-08-2022, 00:27:35,    222,    0.0,   14.0,   0.00,   0.00, 1012.6,   73.0, -999.0
21-08-2022, 00:27:45,    222,    0.0,   14.1,   0.00,   0.00, 1012.6,   73.1, -999.0
21-08-2022, 00:27:54,    222,    0.0,   14.1,   0.00,   0.00, 1012.6,   73.1, -999.0
21-08-2022, 00:28:04,    222,    0.0,   14.1,   0.00,   0.00, 1012.6,   73.1, -999.0
21-08-2022, 00:28:14,    222,    0.0,   14.0,   0.00,   0.00, 1012.6,   73.2, -999.0
21-08-2022, 00:28:24,    222,    0.0,   14.1,   0.00,   0.00, 1012.6,   73.2, -999.0
21-08-2022, 00:28:34,    220,    0.0,   14.1,   0.00,   0.00, 1012.6,   73.2, -999.0
21-08-2022, 00:28:44,    221,    0.0,   14.0,   0.00,   0.00, 1012.6,   73.3, -999.0
21-08-2022, 00:28:54,    221,    0.0,   14.0,   0.00,   0.00, 1012.6,   73.3, -999.0
21-08-2022, 00:29:04,    192,    0.0,   14.0,   0.00,   0.00, 1012.6,   73.4, -999.0
21-08-2022, 00:29:14,    192,    0.0,   14.0,   0.00,   0.00, 1012.6,   73.4, -999.0
21-08-2022, 00:29:24,    192,    0.0,   14.1,   0.00,   0.00, 1012.6,   73.5, -999.0
21-08-2022, 00:29:34,    192,    0.0,   14.1,   0.00,   0.00, 1012.6,   73.4, -999.0
21-08-2022, 00:29:44,    192,    0.0,   14.1,   0.00,   0.00, 1012.6,   73.4, -999.0
21-08-2022, 00:29:54,    192,    0.0,   14.1,   0.00,   0.00, 1012.6,   73.3, -999.0
21-08-2022, 00:30:04,    192,    0.0,   14.0,   0.00,   0.00, 1012.6,   73.1, -999.0
21-08-2022, 00:30:14,    192,    0.0,   14.0,   0.00,   0.00, 1012.6,   73.2, -999.0
21-08-2022, 00:30:24,    191,    0.0,   14.0,   0.00,   0.00, 1012.6,   73.3, -999.0
21-08-2022, 00:30:33,    192,    0.0,   14.0,   0.00,   0.00, 1012.6,   73.3, -999.0
21-08-2022, 00:30:44,    192,    0.0,   14.0,   0.00,   0.00, 1012.7,   73.3, -999.0
21-08-2022, 00:30:57,    191,    0.0,   14.0,   0.00,   0.00, 1012.7,   73.3, -999.0
21-08-2022, 00:31:03,    192,    0.0,   14.0,   0.00,   0.00, 1012.7,   73.5, -999.0
21-08-2022, 00:31:13,    192,    0.0,   14.0,   0.00,   0.00, 1012.6,   73.5, -999.0
21-08-2022, 00:31:23,    192,    0.0,   13.9,   0.00,   0.00, 1012.7,   73.5, -999.0
21-08-2022, 00:31:33,    192,    0.0,   14.0,   0.00,   0.00, 1012.7,   73.5, -999.0
21-08-2022, 00:31:43,    192,    0.0,   14.0,   0.00,   0.00, 1012.6,   73.5, -999.0
21-08-2022, 00:31:53,    192,    0.0,   14.0,   0.00,   0.00, 1012.7,   73.5, -999.0
21-08-2022, 00:32:03,    191,    0.0,   14.0,   0.00,   0.00, 1012.6,   73.7, -999.0
21-08-2022, 00:32:13,    192,    0.0,   14.0,   0.00,   0.00, 1012.6,   73.7, -999.0
21-08-2022, 00:32:23,    192,    0.0,   14.0,   0.00,   0.00, 1012.6,   73.7, -999.0
21-08-2022, 00:32:33,    192,    0.0,   14.0,   0.00,   0.00, 1012.6,   73.7, -999.0
21-08-2022, 00:32:43,    192,    0.0,   14.0,   0.00,   0.00, 1012.6,   73.8, -999.0
21-08-2022, 00:32:53,    192,    0.0,   14.0,   0.00,   0.00, 1012.6,   73.7, -999.0
21-08-2022, 00:33:03,    191,    0.0,   14.0,   0.00,   0.00, 1012.6,   73.7, -999.0
21-08-2022, 00:33:12,    192,    0.0,   14.0,   0.00,   0.00, 1012.6,   73.8, -999.0
21-08-2022, 00:33:23,    192,    0.0,   14.0,   0.00,   0.00, 1012.6,   73.9, -999.0
21-08-2022, 00:33:33,    192,    0.0,   14.0,   0.00,   0.00, 1012.6,   73.8, -999.0
21-08-2022, 00:33:42,    192,    0.0,   14.0,   0.00,   0.00, 1012.6,   73.7, -999.0
21-08-2022, 00:33:52,    192,    0.0,   14.0,   0.00,   0.00, 1012.6,   73.7, -999.0
21-08-2022, 00:34:03,    192,    0.0,   14.0,   0.00,   0.00, 1012.6,   73.8, -999.0
21-08-2022, 00:34:12,    192,    0.0,   14.0,   0.00,   0.00, 1012.6,   73.8, -999.0
21-08-2022, 00:34:22,    191,    0.0,   14.0,   0.00,   0.00, 1012.6,   73.9, -999.0
21-08-2022, 00:34:32,    192,    0.0,   14.0,   0.00,   0.00, 1012.6,   73.8, -999.0
21-08-2022, 00:34:42,    192,    0.0,   14.0,   0.00,   0.00, 1012.6,   73.9, -999.0
21-08-2022, 00:34:52,    192,    0.0,   14.0,   0.00,   0.00, 1012.6,   73.8, -999.0
21-08-2022, 00:35:02,    192,    0.0,   14.0,   0.00,   0.00, 1012.6,   73.9, -999.0
21-08-2022, 00:35:12,    192,    0.0,   14.0,   0.00,   0.00, 1012.6,   73.8, -999.0
21-08-2022, 00:35:22,    192,    0.0,   14.0,   0.00,   0.00, 1012.6,   73.8, -999.0
21-08-2022, 00:35:32,    192,    0.0,   14.0,   0.00,   0.00, 1012.6,   73.8, -999.0
21-08-2022, 00:35:42,    192,    0.0,   14.0,   0.00,   0.00, 1012.6,   73.8, -999.0
21-08-2022, 00:35:52,    192,    0.0,   13.9,   0.00,   0.00, 1012.6,   73.9, -999.0
21-08-2022, 00:36:02,    191,    0.0,   14.0,   0.00,   0.00, 1012.6,   73.8, -999.0
21-08-2022, 00:36:12,    192,    0.0,   14.0,   0.00,   0.00, 1012.5,   73.8, -999.0
21-08-2022, 00:36:22,    192,    0.0,   14.0,   0.00,   0.00, 1012.6,   73.7, -999.0
21-08-2022, 00:36:32,    192,    0.0,   14.0,   0.00,   0.00, 1012.6,   73.8, -999.0
21-08-2022, 00:36:42,    192,    0.0,   13.9,   0.00,   0.00, 1012.6,   73.8, -999.0
21-08-2022, 00:36:51,    191,    0.0,   14.0,   0.00,   0.00, 1012.6,   73.7, -999.0
21-08-2022, 00:37:02,    192,    0.0,   14.0,   0.00,   0.00, 1012.5,   73.8, -999.0
21-08-2022, 00:37:11,    191,    0.0,   13.9,   0.00,   0.00, 1012.5,   73.8, -999.0
21-08-2022, 00:37:21,    192,    0.0,   14.0,   0.00,   0.00, 1012.5,   73.7, -999.0
21-08-2022, 00:37:31,    191,    0.0,   13.9,   0.00,   0.00, 1012.5,   73.8, -999.0
21-08-2022, 00:37:41,    192,    0.0,   13.9,   0.00,   0.00, 1012.5,   73.7, -999.0
21-08-2022, 00:37:51,    192,    0.0,   14.0,   0.00,   0.00, 1012.6,   73.8, -999.0
21-08-2022, 00:38:01,    191,    0.0,   13.8,   0.00,   0.00, 1012.5,   73.8, -999.0
21-08-2022, 00:38:11,    191,    0.0,   13.9,   0.00,   0.00, 1012.5,   73.9, -999.0
21-08-2022, 00:38:21,    192,    0.0,   14.0,   0.00,   0.00, 1012.5,   73.9, -999.0
21-08-2022, 00:38:31,    192,    0.0,   14.0,   0.00,   0.00, 1012.5,   74.0, -999.0
21-08-2022, 00:38:41,    192,    0.0,   13.9,   0.00,   0.00, 1012.5,   73.9, -999.0
21-08-2022, 00:38:51,    192,    0.0,   13.9,   0.00,   0.00, 1012.5,   74.0, -999.0
21-08-2022, 00:39:01,    192,    0.0,   13.9,   0.00,   0.00, 1012.6,   74.0, -999.0
21-08-2022, 00:39:11,    192,    0.0,   13.9,   0.00,   0.00, 1012.5,   74.0, -999.0
21-08-2022, 00:39:21,    192,    0.0,   13.9,   0.00,   0.00, 1012.5,   74.0, -999.0
21-08-2022, 00:39:31,    192,    0.0,   13.9,   0.00,   0.00, 1012.5,   73.9, -999.0
21-08-2022, 00:39:41,    191,    0.0,   13.9,   0.00,   0.00, 1012.6,   74.0, -999.0
21-08-2022, 00:39:50,    192,    0.0,   13.9,   0.00,   0.00, 1012.5,   74.0, -999.0
21-08-2022, 00:40:00,    192,    0.0,   13.9,   0.00,   0.00, 1012.6,   74.1, -999.0
21-08-2022, 00:40:11,    192,    0.0,   13.9,   0.00,   0.00, 1012.6,   74.0, -999.0
21-08-2022, 00:40:20,    192,    0.0,   13.9,   0.00,   0.00, 1012.6,   74.0, -999.0
21-08-2022, 00:40:30,    191,    0.0,   13.9,   0.00,   0.00, 1012.5,   74.1, -999.0
21-08-2022, 00:40:40,    192,    0.0,   13.9,   0.00,   0.00, 1012.5,   74.0, -999.0
21-08-2022, 00:40:50,    192,    0.0,   13.9,   0.00,   0.00, 1012.5,   74.1, -999.0
21-08-2022, 00:41:00,    192,    0.0,   13.9,   0.00,   0.00, 1012.5,   74.2, -999.0
21-08-2022, 00:41:10,    192,    0.0,   13.9,   0.00,   0.00, 1012.5,   74.1, -999.0
21-08-2022, 00:41:20,    191,    0.0,   13.9,   0.00,   0.00, 1012.5,   74.1, -999.0
21-08-2022, 00:41:30,    192,    0.0,   13.9,   0.00,   0.00, 1012.5,   74.1, -999.0
21-08-2022, 00:41:40,    192,    0.0,   13.9,   0.00,   0.00, 1012.5,   74.2, -999.0
21-08-2022, 00:41:50,    192,    0.0,   13.9,   0.00,   0.00, 1012.6,   74.2, -999.0
21-08-2022, 00:42:00,    192,    0.0,   13.9,   0.00,   0.00, 1012.5,   74.2, -999.0
21-08-2022, 00:42:10,    191,    0.0,   13.9,   0.00,   0.00, 1012.5,   74.2, -999.0
21-08-2022, 00:42:20,    192,    0.0,   13.9,   0.00,   0.00, 1012.5,   74.1, -999.0
21-08-2022, 00:42:29,    192,    0.0,   13.9,   0.00,   0.00, 1012.5,   74.1, -999.0
21-08-2022, 00:42:40,    192,    0.0,   13.9,   0.00,   0.00, 1012.5,   74.1, -999.0
21-08-2022, 00:42:50,    192,    0.0,   13.9,   0.00,   0.00, 1012.5,   74.0, -999.0
21-08-2022, 00:42:59,    192,    0.0,   13.8,   0.00,   0.00, 1012.5,   74.2, -999.0
21-08-2022, 00:43:10,    192,    0.0,   13.9,   0.00,   0.00, 1012.5,   74.1, -999.0
21-08-2022, 00:43:19,    191,    0.0,   13.9,   0.00,   0.00, 1012.5,   74.2, -999.0
21-08-2022, 00:43:29,    192,    0.0,   13.9,   0.00,   0.00, 1012.5,   74.1, -999.0
21-08-2022, 00:43:39,    192,    0.0,   13.8,   0.00,   0.00, 1012.5,   74.1, -999.0
21-08-2022, 00:43:49,    192,    0.0,   13.9,   0.00,   0.00, 1012.5,   74.1, -999.0
21-08-2022, 00:43:59,    192,    0.0,   13.9,   0.00,   0.00, 1012.5,   74.1, -999.0
21-08-2022, 00:44:09,    191,    0.0,   13.9,   0.00,   0.00, 1012.5,   74.2, -999.0
21-08-2022, 00:44:19,    192,    0.0,   13.8,   0.00,   0.00, 1012.5,   74.1, -999.0
21-08-2022, 00:44:29,    191,    0.0,   13.9,   0.00,   0.00, 1012.5,   74.2, -999.0
21-08-2022, 00:44:39,    191,    0.0,   13.9,   0.00,   0.00, 1012.5,   74.1, -999.0
21-08-2022, 00:44:49,    195,    0.0,   13.9,   0.00,   0.00, 1012.5,   74.1, -999.0
21-08-2022, 00:44:59,    191,    0.0,   13.9,   0.00,   0.00, 1012.5,   74.1, -999.0
21-08-2022, 00:45:09,    191,    0.0,   13.9,   0.00,   0.00, 1012.5,   74.0, -999.0
21-08-2022, 00:45:19,    192,    0.0,   13.8,   0.00,   0.00, 1012.5,   74.2, -999.0
21-08-2022, 00:45:29,    192,    0.0,   13.8,   0.00,   0.00, 1012.5,   74.2, -999.0
21-08-2022, 00:45:39,    192,    0.0,   13.8,   0.00,   0.00, 1012.5,   74.2, -999.0
21-08-2022, 00:45:49,    191,    0.0,   13.8,   0.00,   0.00, 1012.5,   74.3, -999.0
21-08-2022, 00:45:58,    191,    0.0,   13.9,   0.00,   0.00, 1012.5,   74.2, -999.0
21-08-2022, 00:46:08,    192,    0.0,   13.9,   0.00,   0.00, 1012.5,   74.2, -999.0
21-08-2022, 00:46:20,    192,    0.0,   13.9,   0.00,   0.00, 1012.5,   74.3, -999.0
21-08-2022, 00:46:28,    191,    0.0,   13.9,   0.00,   0.00, 1012.6,   74.2, -999.0
21-08-2022, 00:46:38,    192,    0.0,   13.8,   0.00,   0.00, 1012.5,   74.2, -999.0